Starlink 32486

operational
NORAD ID: 61854 Int'l Des: 2024-202 Owner: SPXS Country: US Constellation: starlink
LEOCIRCULAR

关于 Starlink 32486

正在加载描述...

实时位置

正在加载3D地球...

即将过境

高度历史

Altitude vs Time

uPlot chart will show altitude changes over time

两行轨道根数

1 61854U 24202K 25349.36343680 .00003062 00000-0 12070-3 0 9994
2 61854 43.0000 353.9933 0001491 286.7892 73.2796 15.27596656 62447
Epoch: Dec 15, 2025 • Age: 35 hours

当前状态

高度 489.7 km
速度 7.62 km/s
星下点 -27.28°S, 170.09°E
发射日期 Nov 7, 2024
运行时间 1.1 years
类型 internet

技术详情

分类 Payload
质量 730.00 kg
干质量 700.00 kg
总质量 730.00 kg
长度 0.30 m
直径 4.10 m
跨度 29.00 m
形状 Box + pan
制造商 SPXS
平台类型 Starlink V2M
阶段状态 In Orbit
所有者/国家 SPXS/US

大型星座

Loading constellations...